Location: Hengforden
(52.3167°N, 6.1333°E)
Time: 16:20:24
(UTC+00:00)

Meteor 2-16 Rocket - Pass Details

Date: 14 June 2025
Orbit: 942 x 955 km, 82.6° (Epoch: 19 July)

Event Time Altitude Azimuth Distance (km) Brightness Sun altitude
Exits shadow 22:12:53 11° 192° (SSW) 2,584 6.2 -12.2°
Maximum altitude 22:18:47 84° 280° (W) 956 4.5 -12.5°
Drops below altitude 10° 22:24:55 10° 10° (N) 2,677 7.9 -12.8°
Sets 22:27:25 0° 11° (NNE) 3,628 8.7 -12.9°
